Time,TemperatureF,DewpointF,PressureIn,WindDirection,WindDirectionDegrees,WindSpeedMPH,WindSpeedGustMPH,Humidity,HourlyPrecipIn,Conditions,Clouds,dailyrainin,SolarRadiationWatts/m^2,SoftwareType,DateUTC
2013-06-05 00:01:00,61.1,46.7,30.10,NNE,22,0.0,0.0,59,0.00,,OVC,0.00,0.00,VWS V14.00,2013-06-05 04:01:00,
2013-06-05 00:06:00,60.9,46.5,30.11,NNE,22,0.0,0.0,59,0.00,,OVC,0.00,0.00,VWS V14.00,2013-06-05 04:06:00,
2013-06-05 00:11:00,60.6,47.1,30.11,NNE,22,0.0,0.0,61,0.00,,OVC,0.00,0.00,VWS V14.00,2013-06-05 04:11:00,
2013-06-05 00:16:00,60.4,47.3,30.11,North,0,0.0,0.0,62,0.00,,OVC,0.00,0.00,VWS V14.00,2013-06-05 04:16:00,
2013-06-05 00:21:00,60.0,46.5,30.10,NNE,22,0.0,0.0,61,0.00,,OVC,0.00,0.00,VWS V14.00,2013-06-05 04:21:00,
2013-06-05 00:26:00,60.0,46.5,30.10,North,0,0.0,0.0,61,0.00,,OVC,0.00,0.00,VWS V14.00,2013-06-05 04:26:00,
2013-06-05 00:31:00,60.0,46.1,30.10,North,0,0.0,0.0,60,0.00,,OVC,0.00,0.00,VWS V14.00,2013-06-05 04:31:00,
2013-06-05 00:36:00,60.0,46.1,30.10,North,0,0.0,0.0,60,0.00,,OVC,0.00,0.00,VWS V14.00,2013-06-05 04:36:00,
2013-06-05 00:41:00,59.9,46.0,30.10,NNW,338,0.0,0.0,60,0.00,,OVC,0.00,0.00,VWS V14.00,2013-06-05 04:41:00,
2013-06-05 00:46:00,59.9,46.0,30.11,North,0,0.0,0.0,60,0.00,,OVC,0.00,0.00,VWS V14.00,2013-06-05 04:46:00,
2013-06-05 00:51:00,59.7,45.8,30.11,NNE,22,1.1,1.1,60,0.00,,OVC,0.00,0.00,VWS V14.00,2013-06-05 04:51:00,
2013-06-05 00:56:00,59.5,45.6,30.10,NNW,338,1.3,1.3,60,0.00,,OVC,0.00,0.00,VWS V14.00,2013-06-05 04:56:00,
2013-06-05 01:01:00,59.5,46.1,30.10,NNW,338,0.0,0.0,61,0.00,,OVC,0.00,0.00,VWS V14.00,2013-06-05 05:01:00,
2013-06-05 01:06:00,59.3,45.4,30.10,North,0,0.0,0.0,60,0.00,,OVC,0.00,0.00,VWS V14.00,2013-06-05 05:06:00,
2013-06-05 01:11:00,59.3,45.4,30.10,North,0,0.0,0.0,60,0.00,,OVC,0.00,0.00,VWS V14.00,2013-06-05 05:11:00,
2013-06-05 01:16:00,59.1,45.2,30.10,North,0,0.0,0.0,60,0.00,,OVC,0.00,0.00,VWS V14.00,2013-06-05 05:16:00,
2013-06-05 01:21:00,59.1,45.7,30.10,North,0,0.0,0.0,61,0.00,,OVC,0.00,0.00,VWS V14.00,2013-06-05 05:21:00,
2013-06-05 01:26:00,58.8,45.8,30.11,North,0,0.0,0.0,62,0.00,,OVC,0.00,0.00,VWS V14.00,2013-06-05 05:26:00,
2013-06-05 01:31:00,58.8,45.4,30.11,North,0,0.0,0.0,61,0.00,,OVC,0.00,0.00,VWS V14.00,2013-06-05 05:31:00,
2013-06-05 01:36:00,58.8,45.0,30.10,North,0,0.8,0.8,60,0.00,,OVC,0.00,0.00,VWS V14.00,2013-06-05 05:36:00,
2013-06-05 01:41:00,58.8,45.0,30.10,North,0,0.0,0.0,60,0.00,,OVC,0.00,0.00,VWS V14.00,2013-06-05 05:41:00,
2013-06-05 01:46:00,58.8,45.0,30.10,North,0,0.0,0.0,60,0.00,,OVC,0.00,0.00,VWS V14.00,2013-06-05 05:46:00,
2013-06-05 01:51:00,58.8,45.0,30.10,North,0,0.0,0.0,60,0.00,,OVC,0.00,0.00,VWS V14.00,2013-06-05 05:51:00,
2013-06-05 01:56:00,58.8,45.0,30.10,North,0,0.0,0.0,60,0.00,,OVC,0.00,0.00,VWS V14.00,2013-06-05 05:56:00,
2013-06-05 02:01:00,58.6,45.2,30.10,NNE,22,0.0,0.0,61,0.00,,OVC,0.00,0.00,VWS V14.00,2013-06-05 06:01:00,
2013-06-05 02:06:00,58.4,45.0,30.11,North,0,0.0,0.0,61,0.00,,OVC,0.00,0.00,VWS V14.00,2013-06-05 06:06:00,
2013-06-05 02:11:00,58.2,44.8,30.11,North,0,2.9,2.9,61,0.00,,OVC,0.00,0.00,VWS V14.00,2013-06-05 06:11:00,
2013-06-05 02:16:00,58.2,44.4,30.11,North,0,0.0,0.0,60,0.00,,OVC,0.00,0.00,VWS V14.00,2013-06-05 06:16:00,
2013-06-05 02:21:00,58.2,44.4,30.11,NNW,338,0.0,0.0,60,0.00,,OVC,0.00,0.00,VWS V14.00,2013-06-05 06:21:00,
2013-06-05 02:27:00,58.2,44.8,30.11,NW,315,0.0,0.0,61,0.00,,OVC,0.00,0.00,VWS V14.00,2013-06-05 06:27:00,
2013-06-05 02:32:00,58.1,44.7,30.11,NNW,338,0.0,0.0,61,0.00,,OVC,0.00,0.00,VWS V14.00,2013-06-05 06:32:00,
2013-06-05 02:37:00,57.9,44.5,30.11,NNW,338,0.0,0.0,61,0.00,,OVC,0.00,0.00,VWS V14.00,2013-06-05 06:37:00,
2013-06-05 02:42:00,57.9,45.0,30.11,NNW,338,0.0,0.0,62,0.00,,OVC,0.00,0.00,VWS V14.00,2013-06-05 06:42:00,
2013-06-05 02:47:00,57.7,44.4,30.11,North,0,0.0,0.0,61,0.00,,OVC,0.00,0.00,VWS V14.00,2013-06-05 06:47:00,
2013-06-05 02:52:00,57.7,44.8,30.11,NNW,338,0.0,0.0,62,0.00,,OVC,0.00,0.00,VWS V14.00,2013-06-05 06:52:00,
2013-06-05 02:57:00,57.5,44.6,30.11,North,0,0.0,0.0,62,0.00,,OVC,0.00,0.00,VWS V14.00,2013-06-05 06:57:00,
2013-06-05 03:02:00,57.3,44.8,30.11,North,0,0.0,0.0,63,0.00,,OVC,0.00,0.00,VWS V14.00,2013-06-05 07:02:00,
2013-06-05 03:07:00,57.0,44.5,30.11,North,0,0.0,0.0,63,0.00,,OVC,0.00,0.00,VWS V14.00,2013-06-05 07:07:00,
2013-06-05 03:12:00,57.0,44.5,30.11,North,0,0.0,0.0,63,0.00,,OVC,0.00,0.00,VWS V14.00,2013-06-05 07:12:00,
2013-06-05 03:17:00,56.8,43.9,30.11,North,0,0.0,0.0,62,0.00,,OVC,0.00,0.00,VWS V14.00,2013-06-05 07:17:00,
2013-06-05 03:22:00,56.8,44.3,30.11,North,0,0.0,0.0,63,0.00,,OVC,0.00,0.00,VWS V14.00,2013-06-05 07:22:00,
2013-06-05 03:27:00,56.8,44.3,30.11,North,0,0.0,0.0,63,0.00,,OVC,0.00,0.00,VWS V14.00,2013-06-05 07:27:00,
2013-06-05 03:32:00,56.4,44.0,30.11,North,0,0.0,0.0,63,0.00,,OVC,0.00,0.00,VWS V14.00,2013-06-05 07:32:00,
2013-06-05 03:37:00,56.4,44.4,30.12,North,0,0.0,0.0,64,0.00,,OVC,0.00,0.00,VWS V14.00,2013-06-05 07:37:00,
2013-06-05 03:42:00,56.3,43.9,30.12,North,0,0.0,0.0,63,0.00,,OVC,0.00,0.00,VWS V14.00,2013-06-05 07:42:00,
2013-06-05 03:47:00,56.1,44.5,30.12,North,0,0.0,0.0,65,0.00,,OVC,0.00,0.00,VWS V14.00,2013-06-05 07:47:00,
2013-06-05 03:52:00,56.1,44.9,30.12,North,0,0.0,0.0,66,0.00,,OVC,0.00,0.00,VWS V14.00,2013-06-05 07:52:00,
2013-06-05 03:56:00,55.9,45.5,30.12,North,0,0.0,0.0,68,0.00,,OVC,0.00,0.00,VWS V14.00,2013-06-05 07:56:00,
2013-06-05 04:01:00,55.7,44.9,30.11,North,0,0.0,0.0,67,0.00,,OVC,0.00,0.00,VWS V14.00,2013-06-05 08:01:00,
2013-06-05 04:06:00,55.4,45.0,30.12,North,0,0.0,0.0,68,0.00,,OVC,0.00,0.00,VWS V14.00,2013-06-05 08:06:00,
2013-06-05 04:12:00,55.2,44.8,30.11,North,0,0.0,0.0,68,0.00,,OVC,0.00,0.00,VWS V14.00,2013-06-05 08:12:00,
2013-06-05 04:17:00,55.2,45.2,30.12,North,0,0.0,0.0,69,0.00,,OVC,0.00,0.00,VWS V14.00,2013-06-05 08:17:00,
2013-06-05 04:22:00,55.0,45.4,30.12,North,0,0.0,0.0,70,0.00,,OVC,0.00,0.00,VWS V14.00,2013-06-05 08:22:00,
2013-06-05 04:27:00,54.8,45.2,30.12,North,0,0.0,0.0,70,0.00,,OVC,0.00,0.00,VWS V14.00,2013-06-05 08:27:00,
2013-06-05 04:32:00,54.6,45.8,30.12,North,0,0.0,0.0,72,0.00,,OVC,0.00,0.00,VWS V14.00,2013-06-05 08:32:00,
2013-06-05 04:36:00,54.6,45.8,30.12,North,0,0.0,0.0,72,0.00,,OVC,0.00,0.00,VWS V14.00,2013-06-05 08:36:00,
2013-06-05 04:42:00,54.3,45.1,30.12,North,0,0.0,0.0,71,0.00,,OVC,0.00,0.00,VWS V14.00,2013-06-05 08:42:00,
2013-06-05 04:47:00,54.1,44.9,30.13,North,0,0.0,0.0,71,0.00,,OVC,0.00,0.00,VWS V14.00,2013-06-05 08:47:00,
2013-06-05 04:52:00,54.3,45.8,30.12,North,0,0.0,0.0,73,0.00,,OVC,0.00,0.00,VWS V14.00,2013-06-05 08:52:00,
2013-06-05 04:57:00,54.3,46.2,30.13,North,0,0.0,0.0,74,0.00,,OVC,0.00,0.00,VWS V14.00,2013-06-05 08:57:00,
2013-06-05 05:02:00,54.3,46.6,30.13,North,0,0.0,0.0,75,0.00,,OVC,0.00,0.00,VWS V14.00,2013-06-05 09:02:00,
2013-06-05 05:07:00,54.1,46.4,30.13,North,0,0.0,0.0,75,0.00,,OVC,0.00,0.00,VWS V14.00,2013-06-05 09:07:00,
2013-06-05 05:12:00,53.9,46.2,30.13,North,0,0.0,0.0,75,0.00,,OVC,0.00,0.00,VWS V14.00,2013-06-05 09:12:00,
2013-06-05 05:17:00,53.7,45.6,30.14,North,0,0.0,0.0,74,0.00,,OVC,0.00,0.00,VWS V14.00,2013-06-05 09:17:00,
2013-06-05 05:22:00,53.7,46.0,30.14,North,0,0.0,0.0,75,0.00,,OVC,0.00,0.00,VWS V14.00,2013-06-05 09:22:00,
2013-06-05 05:27:00,53.7,46.3,30.14,North,0,0.0,0.0,76,0.00,,OVC,0.00,0.00,VWS V14.00,2013-06-05 09:27:00,
2013-06-05 05:32:00,53.7,46.7,30.14,North,0,0.0,0.0,77,0.00,,OVC,0.00,0.00,VWS V14.00,2013-06-05 09:32:00,
2013-06-05 05:37:00,53.6,46.2,30.15,North,0,0.0,0.0,76,0.00,,OVC,0.00,0.00,VWS V14.00,2013-06-05 09:37:00,
2013-06-05 05:42:00,53.4,46.4,30.14,North,0,0.0,0.0,77,0.00,,OVC,0.00,0.00,VWS V14.00,2013-06-05 09:42:00,
2013-06-05 05:47:00,53.7,46.7,30.14,North,0,0.0,0.0,77,0.00,,OVC,0.00,0.00,VWS V14.00,2013-06-05 09:47:00,
2013-06-05 05:52:00,53.7,47.0,30.15,North,0,0.0,0.0,78,0.00,,OVC,0.00,0.00,VWS V14.00,2013-06-05 09:52:00,
2013-06-05 05:57:00,53.9,47.5,30.15,North,0,0.0,0.0,79,0.00,,OVC,0.00,0.00,VWS V14.00,2013-06-05 09:57:00,
2013-06-05 06:02:00,54.1,47.7,30.15,North,0,0.0,0.0,79,0.00,,OVC,0.00,0.00,VWS V14.00,2013-06-05 10:02:00,
2013-06-05 06:07:00,54.3,47.9,30.15,North,0,0.0,0.0,79,0.00,,OVC,0.00,0.00,VWS V14.00,2013-06-05 10:07:00,
2013-06-05 06:12:00,54.3,47.9,30.15,North,0,0.0,0.0,79,0.00,,OVC,0.00,0.00,VWS V14.00,2013-06-05 10:12:00,
2013-06-05 06:17:00,54.5,48.1,30.16,North,0,0.0,0.0,79,0.00,,OVC,0.00,0.00,VWS V14.00,2013-06-05 10:17:00,
2013-06-05 06:22:00,55.0,48.6,30.16,North,0,0.0,0.0,79,0.00,,OVC,0.00,0.00,VWS V14.00,2013-06-05 10:22:00,
2013-06-05 06:27:00,55.0,48.6,30.16,North,0,0.0,0.0,79,0.00,,OVC,0.00,0.00,VWS V14.00,2013-06-05 10:27:00,
2013-06-05 06:32:00,55.2,48.8,30.16,North,0,0.0,0.0,79,0.00,,OVC,0.00,0.00,VWS V14.00,2013-06-05 10:32:00,
2013-06-05 06:37:00,55.5,49.1,30.16,North,0,0.0,0.0,79,0.00,,OVC,0.00,0.00,VWS V14.00,2013-06-05 10:37:00,
2013-06-05 06:42:00,56.1,49.7,30.16,North,0,0.0,0.0,79,0.00,,OVC,0.00,0.00,VWS V14.00,2013-06-05 10:42:00,
2013-06-05 06:47:00,56.8,50.0,30.17,North,0,0.0,0.0,78,0.00,,OVC,0.00,0.00,VWS V14.00,2013-06-05 10:47:00,
2013-06-05 06:52:00,57.0,49.5,30.17,North,0,0.0,0.0,76,0.00,,OVC,0.00,0.00,VWS V14.00,2013-06-05 10:52:00,
2013-06-05 06:57:00,57.3,49.1,30.17,North,0,0.0,0.0,74,0.00,,OVC,0.00,0.00,VWS V14.00,2013-06-05 10:57:00,
2013-06-05 07:02:00,57.5,49.3,30.18,North,0,0.0,0.0,74,0.00,,OVC,0.00,0.00,VWS V14.00,2013-06-05 11:02:00,
2013-06-05 07:07:00,58.2,49.6,30.17,North,0,0.0,0.0,73,0.00,,OVC,0.00,0.00,VWS V14.00,2013-06-05 11:07:00,
2013-06-05 07:12:00,59.9,50.9,30.18,North,0,0.0,0.0,72,0.00,,OVC,0.00,0.00,VWS V14.00,2013-06-05 11:12:00,
2013-06-05 07:17:00,64.9,54.9,30.18,North,0,0.0,0.0,70,0.00,,OVC,0.00,0.00,VWS V14.00,2013-06-05 11:17:00,
2013-06-05 07:22:00,71.2,56.6,30.18,NNE,22,0.0,0.0,60,0.00,,OVC,0.00,0.00,VWS V14.00,2013-06-05 11:22:00,
2013-06-05 07:27:00,74.4,56.2,30.18,North,0,4.0,4.0,53,0.00,,OVC,0.00,0.00,VWS V14.00,2013-06-05 11:27:00,
2013-06-05 07:32:00,77.0,54.7,30.18,North,0,0.0,0.0,46,0.00,,OVC,0.00,0.00,VWS V14.00,2013-06-05 11:32:00,
2013-06-05 07:37:00,78.4,54.7,30.18,NNE,22,0.0,0.0,44,0.00,,OVC,0.00,0.00,VWS V14.00,2013-06-05 11:37:00,
2013-06-05 07:42:00,80.0,54.9,30.19,NNE,22,0.0,0.0,42,0.00,,OVC,0.00,0.00,VWS V14.00,2013-06-05 11:42:00,
2013-06-05 07:47:00,81.8,54.5,30.18,NNE,22,1.3,1.3,39,0.00,,OVC,0.00,0.00,VWS V14.00,2013-06-05 11:47:00,
2013-06-05 07:52:00,83.1,54.2,30.18,NE,45,0.0,0.0,37,0.00,,OVC,0.00,0.00,VWS V14.00,2013-06-05 11:52:00,
2013-06-05 07:57:00,84.0,54.2,30.18,NE,45,2.2,2.2,36,0.00,,OVC,0.00,0.00,VWS V14.00,2013-06-05 11:57:00,
2013-06-05 08:02:00,84.3,54.5,30.18,NNE,22,2.6,2.6,36,0.00,,OVC,0.00,0.00,VWS V14.00,2013-06-05 12:02:00,
2013-06-05 08:07:00,84.9,54.2,30.18,NE,45,1.7,1.7,35,0.00,,OVC,0.00,0.00,VWS V14.00,2013-06-05 12:07:00,
2013-06-05 08:12:00,84.3,52.9,30.19,WNW,292,6.0,6.0,34,0.00,,OVC,0.00,0.00,VWS V14.00,2013-06-05 12:12:00,
2013-06-05 08:17:00,83.8,54.0,30.19,NNE,22,3.8,3.8,36,0.00,,OVC,0.00,0.00,VWS V14.00,2013-06-05 12:17:00,
2013-06-05 08:22:00,83.1,52.6,30.19,ENE,68,0.0,0.0,35,0.00,,OVC,0.00,0.00,VWS V14.00,2013-06-05 12:22:00,
2013-06-05 08:27:00,83.1,52.6,30.19,ENE,68,0.0,0.0,35,0.00,,OVC,0.00,0.00,VWS V14.00,2013-06-05 12:27:00,
2013-06-05 08:32:00,83.3,52.8,30.19,ENE,68,0.0,0.0,35,0.00,,OVC,0.00,0.00,VWS V14.00,2013-06-05 12:32:00,
2013-06-05 08:37:00,83.4,52.9,30.19,NE,45,3.8,3.8,35,0.00,,OVC,0.00,0.00,VWS V14.00,2013-06-05 12:37:00,
2013-06-05 08:42:00,83.4,52.9,30.19,NE,45,6.0,6.0,35,0.00,,OVC,0.00,0.00,VWS V14.00,2013-06-05 12:42:00,
2013-06-05 08:47:00,83.4,53.7,30.19,ENE,68,0.0,0.0,36,0.00,,OVC,0.00,0.00,VWS V14.00,2013-06-05 12:47:00,
2013-06-05 08:52:00,83.1,54.2,30.19,ENE,68,0.0,0.0,37,0.00,,OVC,0.00,0.00,VWS V14.00,2013-06-05 12:52:00,
2013-06-05 08:57:00,82.5,53.6,30.19,NNE,22,4.4,4.4,37,0.00,,OVC,0.00,0.00,VWS V14.00,2013-06-05 12:57:00,
2013-06-05 09:02:00,81.6,53.6,30.19,East,90,3.1,3.1,38,0.00,,OVC,0.00,0.00,VWS V14.00,2013-06-05 13:02:00,
2013-06-05 09:07:00,81.1,53.1,30.19,North,0,0.0,0.0,38,0.00,,OVC,0.00,0.00,VWS V14.00,2013-06-05 13:07:00,
2013-06-05 09:12:00,81.3,53.3,30.19,ENE,68,3.8,3.8,38,0.00,,OVC,0.00,0.00,VWS V14.00,2013-06-05 13:12:00,
2013-06-05 09:17:00,81.3,53.3,30.20,ESE,112,0.0,0.0,38,0.00,,OVC,0.00,0.00,VWS V14.00,2013-06-05 13:17:00,
2013-06-05 09:22:00,81.3,53.3,30.20,ENE,68,0.0,0.0,38,0.00,,OVC,0.00,0.00,VWS V14.00,2013-06-05 13:22:00,
2013-06-05 09:27:00,81.6,54.3,30.20,NNE,22,0.0,0.0,39,0.00,,OVC,0.00,0.00,VWS V14.00,2013-06-05 13:27:00,
2013-06-05 09:32:00,81.3,54.0,30.20,ESE,112,1.7,1.7,39,0.00,,OVC,0.00,0.00,VWS V14.00,2013-06-05 13:32:00,
2013-06-05 09:37:00,81.1,53.8,30.20,ENE,68,0.0,0.0,39,0.00,,OVC,0.00,0.00,VWS V14.00,2013-06-05 13:37:00,
2013-06-05 09:42:00,80.2,53.7,30.20,ENE,68,3.3,3.3,40,0.00,,OVC,0.00,0.00,VWS V14.00,2013-06-05 13:42:00,
2013-06-05 09:47:00,79.1,52.7,30.20,NNW,338,1.1,1.1,40,0.00,,OVC,0.00,0.00,VWS V14.00,2013-06-05 13:47:00,
2013-06-05 09:52:00,79.1,53.4,30.20,South,180,0.0,0.0,41,0.00,,OVC,0.00,0.00,VWS V14.00,2013-06-05 13:52:00,
2013-06-05 09:57:00,79.8,54.7,30.20,ENE,68,0.4,0.4,42,0.00,,OVC,0.00,0.00,VWS V14.00,2013-06-05 13:57:00,
2013-06-05 10:02:00,79.7,53.9,30.20,ESE,112,0.0,0.0,41,0.00,,OVC,0.00,0.00,VWS V14.00,2013-06-05 14:02:00,
2013-06-05 10:07:00,79.1,53.4,30.20,NNE,22,0.0,0.0,41,0.00,,OVC,0.00,0.00,VWS V14.00,2013-06-05 14:07:00,
2013-06-05 10:12:00,78.6,53.6,30.20,NE,45,0.0,0.0,42,0.00,,OVC,0.00,0.00,VWS V14.00,2013-06-05 14:12:00,
2013-06-05 10:17:00,78.0,53.7,30.21,NNE,22,1.1,1.1,43,0.00,,OVC,0.00,0.00,VWS V14.00,2013-06-05 14:17:00,
2013-06-05 10:22:00,77.7,53.5,30.21,ENE,68,3.8,3.8,43,0.00,,OVC,0.00,0.00,VWS V14.00,2013-06-05 14:22:00,
2013-06-05 10:27:00,77.1,52.9,30.20,ENE,68,3.5,3.5,43,0.00,,OVC,0.00,0.00,VWS V14.00,2013-06-05 14:27:00,
2013-06-05 10:32:00,76.8,53.9,30.20,North,0,0.0,0.0,45,0.00,,OVC,0.00,0.00,VWS V14.00,2013-06-05 14:32:00,
2013-06-05 10:37:00,76.6,53.1,30.21,ENE,68,2.9,2.9,44,0.00,,OVC,0.00,0.00,VWS V14.00,2013-06-05 14:37:00,
2013-06-05 10:42:00,76.2,53.3,30.21,NE,45,0.0,0.0,45,0.00,,OVC,0.00,0.00,VWS V14.00,2013-06-05 14:42:00,
2013-06-05 10:47:00,75.9,52.5,30.21,NNE,22,6.7,6.7,44,0.00,,OVC,0.00,0.00,VWS V14.00,2013-06-05 14:47:00,
2013-06-05 10:52:00,74.6,52.5,30.21,NE,45,0.0,0.0,46,0.00,,OVC,0.00,0.00,VWS V14.00,2013-06-05 14:52:00,
2013-06-05 10:57:00,74.6,53.6,30.20,ENE,68,0.0,0.0,48,0.00,,OVC,0.00,0.00,VWS V14.00,2013-06-05 14:57:00,
2013-06-05 11:02:00,74.8,53.2,30.21,ESE,112,0.0,0.0,47,0.00,,OVC,0.00,0.00,VWS V14.00,2013-06-05 15:02:00,
2013-06-05 11:07:00,74.6,53.6,30.20,ENE,68,5.8,5.8,48,0.00,,OVC,0.00,0.00,VWS V14.00,2013-06-05 15:07:00,
2013-06-05 11:12:00,74.4,53.5,30.20,NE,45,4.9,4.9,48,0.00,,OVC,0.00,0.00,VWS V14.00,2013-06-05 15:12:00,
2013-06-05 11:17:00,74.4,53.5,30.20,NE,45,0.8,0.8,48,0.00,,OVC,0.00,0.00,VWS V14.00,2013-06-05 15:17:00,
2013-06-05 11:22:00,74.4,54.0,30.20,NE,45,4.6,4.6,49,0.00,,OVC,0.00,0.00,VWS V14.00,2013-06-05 15:22:00,
2013-06-05 11:27:00,74.6,53.6,30.20,SSW,202,0.0,0.0,48,0.00,,OVC,0.00,0.00,VWS V14.00,2013-06-05 15:27:00,
2013-06-05 11:32:00,75.0,54.6,30.20,NNE,22,0.0,0.0,49,0.00,,OVC,0.00,0.00,VWS V14.00,2013-06-05 15:32:00,
2013-06-05 11:37:00,74.4,54.0,30.20,ENE,68,0.0,0.0,49,0.00,,OVC,0.00,0.00,VWS V14.00,2013-06-05 15:37:00,
2013-06-05 11:42:00,74.8,54.4,30.20,ENE,68,4.2,4.2,49,0.00,,OVC,0.00,0.00,VWS V14.00,2013-06-05 15:42:00,
2013-06-05 11:47:00,74.1,53.7,30.20,ENE,68,0.0,0.0,49,0.00,,OVC,0.00,0.00,VWS V14.00,2013-06-05 15:47:00,
2013-06-05 11:52:00,74.1,54.3,30.19,ENE,68,0.0,0.0,50,0.00,,OVC,0.00,0.00,VWS V14.00,2013-06-05 15:52:00,
2013-06-05 11:57:00,73.2,54.0,30.20,NE,45,1.1,1.1,51,0.00,,OVC,0.00,0.00,VWS V14.00,2013-06-05 15:57:00,
2013-06-05 12:02:00,72.6,53.5,30.19,ENE,68,0.0,0.0,51,0.00,,OVC,0.00,0.00,VWS V14.00,2013-06-05 16:02:00,
2013-06-05 12:07:00,72.3,53.7,30.19,SSE,158,0.0,0.0,52,0.00,,OVC,0.00,0.00,VWS V14.00,2013-06-05 16:07:00,
2013-06-05 12:12:00,72.3,54.2,30.19,SE,135,0.0,0.0,53,0.00,,OVC,0.00,0.00,VWS V14.00,2013-06-05 16:12:00,
2013-06-05 12:17:00,72.5,54.4,30.18,NNE,22,2.0,4.6,53,0.00,,OVC,0.00,0.00,VWS V14.00,2013-06-05 16:17:00,
2013-06-05 12:22:00,72.5,54.4,30.18,SSW,202,1.3,1.3,53,0.00,,OVC,0.00,0.00,VWS V14.00,2013-06-05 16:22:00,
2013-06-05 12:27:00,72.6,54.5,30.19,ENE,68,2.2,2.2,53,0.00,,OVC,0.00,0.00,VWS V14.00,2013-06-05 16:27:00,
2013-06-05 12:32:00,72.5,54.4,30.18,ESE,112,0.0,0.0,53,0.00,,OVC,0.00,0.00,VWS V14.00,2013-06-05 16:32:00,
2013-06-05 12:37:00,72.5,53.9,30.18,East,90,0.0,0.0,52,0.00,,OVC,0.00,0.00,VWS V14.00,2013-06-05 16:37:00,
2013-06-05 12:42:00,72.6,54.0,30.18,ESE,112,0.0,0.0,52,0.00,,OVC,0.00,0.00,VWS V14.00,2013-06-05 16:42:00,
2013-06-05 12:47:00,72.3,53.7,30.18,ESE,112,1.7,1.7,52,0.00,,OVC,0.00,0.00,VWS V14.00,2013-06-05 16:47:00,
2013-06-05 12:52:00,72.3,54.2,30.18,NE,45,0.0,0.0,53,0.00,,OVC,0.00,0.00,VWS V14.00,2013-06-05 16:52:00,
2013-06-05 12:57:00,72.5,54.4,30.17,NE,45,2.4,3.1,53,0.00,,OVC,0.00,0.00,VWS V14.00,2013-06-05 16:57:00,
2013-06-05 13:02:00,72.5,54.4,30.18,East,90,4.2,4.2,53,0.00,,OVC,0.00,0.00,VWS V14.00,2013-06-05 17:02:00,
2013-06-05 13:07:00,72.3,54.7,30.17,SE,135,1.5,1.5,54,0.00,,OVC,0.00,0.00,VWS V14.00,2013-06-05 17:07:00,
2013-06-05 13:12:00,72.6,54.5,30.17,SE,135,2.6,2.6,53,0.00,,OVC,0.00,0.00,VWS V14.00,2013-06-05 17:12:00,
2013-06-05 13:17:00,73.0,54.9,30.16,NE,45,8.2,8.2,53,0.00,,OVC,0.00,0.00,VWS V14.00,2013-06-05 17:17:00,
2013-06-05 13:22:00,72.6,54.5,30.16,East,90,0.0,0.0,53,0.00,,OVC,0.00,0.00,VWS V14.00,2013-06-05 17:22:00,
2013-06-05 13:27:00,72.6,55.0,30.16,South,180,0.0,0.0,54,0.00,,OVC,0.00,0.00,VWS V14.00,2013-06-05 17:27:00,
2013-06-05 13:32:00,72.8,55.2,30.16,SSE,158,0.8,2.4,54,0.00,,OVC,0.00,0.00,VWS V14.00,2013-06-05 17:32:00,
2013-06-05 13:37:00,72.3,54.7,30.16,ENE,68,0.0,12.5,54,0.00,,OVC,0.00,0.00,VWS V14.00,2013-06-05 17:37:00,
2013-06-05 13:42:00,72.1,55.1,30.16,NE,45,0.0,1.7,55,0.00,,OVC,0.00,0.00,VWS V14.00,2013-06-05 17:42:00,
2013-06-05 13:47:00,71.7,54.7,30.16,SSE,158,5.1,5.1,55,0.00,,OVC,0.00,0.00,VWS V14.00,2013-06-05 17:47:00,
2013-06-05 13:52:00,71.4,54.9,30.16,SE,135,0.0,4.2,56,0.00,,OVC,0.00,0.00,VWS V14.00,2013-06-05 17:52:00,
2013-06-05 13:57:00,71.6,55.1,30.16,NE,45,0.0,0.0,56,0.00,,OVC,0.00,0.00,VWS V14.00,2013-06-05 17:57:00,
2013-06-05 14:02:00,71.7,55.7,30.16,NE,45,0.0,0.0,57,0.00,,OVC,0.00,0.00,VWS V14.00,2013-06-05 18:02:00,
2013-06-05 14:07:00,71.7,55.2,30.16,SSE,158,0.4,0.4,56,0.00,,OVC,0.00,0.00,VWS V14.00,2013-06-05 18:07:00,
2013-06-05 14:12:00,71.4,54.9,30.16,NE,45,6.9,6.9,56,0.00,,OVC,0.00,0.00,VWS V14.00,2013-06-05 18:12:00,
2013-06-05 14:17:00,70.8,55.3,30.16,NNE,22,0.0,0.0,58,0.00,,OVC,0.00,0.00,VWS V14.00,2013-06-05 18:17:00,
2013-06-05 14:22:00,69.9,54.9,30.16,NE,45,3.8,3.8,59,0.00,,OVC,0.00,0.00,VWS V14.00,2013-06-05 18:22:00,
2013-06-05 14:27:00,69.0,54.5,30.16,ENE,68,0.0,0.0,60,0.00,,OVC,0.00,0.00,VWS V14.00,2013-06-05 18:27:00,
2013-06-05 14:32:00,68.5,54.5,30.16,ENE,68,1.7,1.7,61,0.00,,OVC,0.00,0.00,VWS V14.00,2013-06-05 18:32:00,
2013-06-05 14:37:00,67.8,53.9,30.15,NE,45,4.4,4.4,61,0.00,,OVC,0.00,0.00,VWS V14.00,2013-06-05 18:37:00,
2013-06-05 14:42:00,67.6,54.1,30.16,SE,135,0.0,0.0,62,0.00,,OVC,0.00,0.00,VWS V14.00,2013-06-05 18:42:00,
2013-06-05 14:47:00,67.8,54.8,30.16,East,90,0.0,0.0,63,0.00,,OVC,0.00,0.00,VWS V14.00,2013-06-05 18:47:00,
2013-06-05 14:52:00,67.8,54.3,30.16,NE,45,0.4,0.4,62,0.00,,OVC,0.00,0.00,VWS V14.00,2013-06-05 18:52:00,
2013-06-05 14:57:00,67.6,54.1,30.16,ENE,68,1.3,1.3,62,0.00,,OVC,0.00,0.00,VWS V14.00,2013-06-05 18:57:00,
2013-06-05 15:02:00,67.8,54.8,30.16,SSE,158,0.0,0.0,63,0.00,,OVC,0.00,0.00,VWS V14.00,2013-06-05 19:02:00,
2013-06-05 15:07:00,67.8,54.3,30.16,NE,45,1.7,1.7,62,0.00,,OVC,0.00,0.00,VWS V14.00,2013-06-05 19:07:00,
2013-06-05 15:12:00,67.6,54.1,30.16,East,90,0.0,0.0,62,0.00,,OVC,0.00,0.00,VWS V14.00,2013-06-05 19:12:00,
2013-06-05 15:17:00,67.6,54.6,30.16,ENE,68,0.0,0.0,63,0.00,,OVC,0.00,0.00,VWS V14.00,2013-06-05 19:17:00,
2013-06-05 15:22:00,68.1,55.0,30.15,SSE,158,0.8,0.8,63,0.00,,OVC,0.00,0.00,VWS V14.00,2013-06-05 19:22:00,
2013-06-05 15:27:00,68.1,55.0,30.15,SE,135,2.6,2.6,63,0.00,,OVC,0.00,0.00,VWS V14.00,2013-06-05 19:27:00,
2013-06-05 15:32:00,67.8,54.8,30.15,SE,135,0.0,0.0,63,0.00,,OVC,0.00,0.00,VWS V14.00,2013-06-05 19:32:00,
2013-06-05 15:37:00,67.8,54.8,30.14,ENE,68,2.0,2.0,63,0.00,,OVC,0.00,0.00,VWS V14.00,2013-06-05 19:37:00,
2013-06-05 15:42:00,67.8,54.8,30.15,SE,135,3.3,3.3,63,0.00,,OVC,0.00,0.00,VWS V14.00,2013-06-05 19:42:00,
2013-06-05 15:47:00,67.6,54.1,30.14,SSE,158,0.6,0.6,62,0.00,,OVC,0.00,0.00,VWS V14.00,2013-06-05 19:47:00,
2013-06-05 15:52:00,66.9,53.5,30.14,NE,45,0.0,0.0,62,0.00,,OVC,0.00,0.00,VWS V14.00,2013-06-05 19:52:00,
2013-06-05 15:57:00,66.7,53.7,30.14,SSE,158,2.6,2.6,63,0.00,,OVC,0.00,0.00,VWS V14.00,2013-06-05 19:57:00,
2013-06-05 16:02:00,66.9,54.3,30.15,NE,45,5.8,5.8,64,0.00,,OVC,0.00,0.00,VWS V14.00,2013-06-05 20:02:00,
2013-06-05 16:07:00,67.1,54.5,30.15,NNE,22,5.1,5.1,64,0.00,,OVC,0.00,0.00,VWS V14.00,2013-06-05 20:07:00,
2013-06-05 16:12:00,66.7,54.6,30.15,NE,45,5.3,5.3,65,0.00,,OVC,0.00,0.00,VWS V14.00,2013-06-05 20:12:00,
2013-06-05 16:17:00,66.3,54.2,30.15,NE,45,0.0,0.0,65,0.00,,OVC,0.00,0.00,VWS V14.00,2013-06-05 20:17:00,
2013-06-05 16:22:00,66.2,54.5,30.15,NNE,22,0.0,0.0,66,0.00,,OVC,0.00,0.00,VWS V14.00,2013-06-05 20:22:00,
2013-06-05 16:27:00,66.0,54.3,30.15,NE,45,4.0,4.0,66,0.00,,OVC,0.00,0.00,VWS V14.00,2013-06-05 20:27:00,
2013-06-05 16:32:00,66.0,54.3,30.15,ESE,112,0.0,0.0,66,0.00,,OVC,0.00,0.00,VWS V14.00,2013-06-05 20:32:00,
2013-06-05 16:37:00,66.0,54.3,30.15,NNE,22,4.6,4.6,66,0.00,,OVC,0.00,0.00,VWS V14.00,2013-06-05 20:37:00,
2013-06-05 16:42:00,66.3,55.0,30.14,NE,45,0.0,0.0,67,0.00,,OVC,0.00,0.00,VWS V14.00,2013-06-05 20:42:00,
2013-06-05 16:47:00,66.0,54.7,30.14,East,90,2.4,2.4,67,0.00,,OVC,0.00,0.00,VWS V14.00,2013-06-05 20:47:00,
2013-06-05 16:52:00,66.0,54.7,30.15,NNE,22,4.4,4.4,67,0.00,,OVC,0.00,0.00,VWS V14.00,2013-06-05 20:52:00,
2013-06-05 16:57:00,65.8,54.5,30.15,ESE,112,0.0,0.0,67,0.00,,OVC,0.00,0.00,VWS V14.00,2013-06-05 20:57:00,
2013-06-05 17:02:00,65.6,54.8,30.15,SSE,158,2.4,2.4,68,0.00,,OVC,0.00,0.00,VWS V14.00,2013-06-05 21:02:00,
2013-06-05 17:07:00,65.4,54.6,30.15,NE,45,3.3,3.3,68,0.00,,OVC,0.00,0.00,VWS V14.00,2013-06-05 21:07:00,
2013-06-05 17:12:00,65.3,54.9,30.15,SSE,158,0.0,0.0,69,0.00,,OVC,0.00,0.00,VWS V14.00,2013-06-05 21:12:00,
2013-06-05 17:17:00,65.4,55.0,30.15,NE,45,0.2,0.2,69,0.00,,OVC,0.00,0.00,VWS V14.00,2013-06-05 21:17:00,
2013-06-05 17:22:00,65.4,54.6,30.15,South,180,0.0,0.0,68,0.00,,OVC,0.00,0.00,VWS V14.00,2013-06-05 21:22:00,
2013-06-05 17:27:00,65.6,54.8,30.15,NE,45,0.0,0.0,68,0.00,,OVC,0.00,0.00,VWS V14.00,2013-06-05 21:27:00,
2013-06-05 17:32:00,65.8,54.5,30.15,SE,135,0.0,0.0,67,0.00,,OVC,0.00,0.00,VWS V14.00,2013-06-05 21:32:00,
2013-06-05 17:37:00,65.8,54.5,30.15,East,90,0.0,0.0,67,0.00,,OVC,0.00,0.00,VWS V14.00,2013-06-05 21:37:00,
2013-06-05 17:42:00,65.8,54.5,30.15,ESE,112,0.0,0.0,67,0.00,,OVC,0.00,0.00,VWS V14.00,2013-06-05 21:42:00,
2013-06-05 17:47:00,65.8,54.5,30.15,ENE,68,0.0,0.0,67,0.00,,OVC,0.00,0.00,VWS V14.00,2013-06-05 21:47:00,
2013-06-05 17:52:00,65.6,54.4,30.14,East,90,0.0,0.0,67,0.00,,OVC,0.00,0.00,VWS V14.00,2013-06-05 21:52:00,
2013-06-05 17:57:00,65.4,54.2,30.14,ENE,68,0.0,0.0,67,0.00,,OVC,0.00,0.00,VWS V14.00,2013-06-05 21:57:00,
2013-06-05 18:02:00,65.3,54.1,30.14,ENE,68,0.0,0.0,67,0.00,,OVC,0.00,0.00,VWS V14.00,2013-06-05 22:02:00,
2013-06-05 18:07:00,65.1,54.3,30.14,NNE,22,0.0,0.0,68,0.00,,OVC,0.00,0.00,VWS V14.00,2013-06-05 22:07:00,
2013-06-05 18:12:00,64.9,54.1,30.14,SE,135,0.0,0.0,68,0.00,,OVC,0.00,0.00,VWS V14.00,2013-06-05 22:12:00,
2013-06-05 18:17:00,64.9,54.5,30.15,SSE,158,0.0,0.0,69,0.00,,OVC,0.00,0.00,VWS V14.00,2013-06-05 22:17:00,
2013-06-05 18:22:00,64.9,54.5,30.15,ESE,112,0.0,0.0,69,0.00,,OVC,0.00,0.00,VWS V14.00,2013-06-05 22:22:00,
2013-06-05 18:27:00,64.7,54.3,30.15,ESE,112,2.2,2.2,69,0.00,,OVC,0.00,0.00,VWS V14.00,2013-06-05 22:27:00,
2013-06-05 18:32:00,64.5,54.1,30.15,NE,45,0.4,0.4,69,0.00,,OVC,0.00,0.00,VWS V14.00,2013-06-05 22:32:00,
2013-06-05 18:37:00,64.2,54.2,30.14,SSE,158,0.0,0.0,70,0.00,,OVC,0.00,0.00,VWS V14.00,2013-06-05 22:37:00,
2013-06-05 18:42:00,64.2,54.2,30.15,SE,135,0.0,0.0,70,0.00,,OVC,0.00,0.00,VWS V14.00,2013-06-05 22:42:00,
2013-06-05 18:47:00,64.0,54.0,30.14,SE,135,3.3,3.3,70,0.00,,OVC,0.00,0.00,VWS V14.00,2013-06-05 22:47:00,
2013-06-05 18:52:00,63.8,54.2,30.14,ESE,112,0.4,0.4,71,0.00,,OVC,0.00,0.00,VWS V14.00,2013-06-05 22:52:00,
2013-06-05 18:57:00,63.6,54.0,30.14,SE,135,0.0,0.0,71,0.00,,OVC,0.00,0.00,VWS V14.00,2013-06-05 22:57:00,
2013-06-05 19:02:00,63.3,54.1,30.14,ESE,112,0.8,0.8,72,0.00,,OVC,0.00,0.00,VWS V14.00,2013-06-05 23:02:00,
2013-06-05 19:07:00,63.1,53.9,30.14,ESE,112,1.5,1.5,72,0.00,,OVC,0.00,0.00,VWS V14.00,2013-06-05 23:07:00,
2013-06-05 19:12:00,62.9,54.1,30.14,SE,135,0.0,0.0,73,0.00,,OVC,0.00,0.00,VWS V14.00,2013-06-05 23:12:00,
2013-06-05 19:17:00,62.7,53.9,30.13,ESE,112,2.4,2.4,73,0.00,,OVC,0.00,0.00,VWS V14.00,2013-06-05 23:17:00,
2013-06-05 19:22:00,62.6,54.2,30.13,ESE,112,0.0,0.0,74,0.00,,OVC,0.00,0.00,VWS V14.00,2013-06-05 23:22:00,
2013-06-05 19:27:00,62.6,54.2,30.13,ESE,112,0.0,0.0,74,0.00,,OVC,0.00,0.00,VWS V14.00,2013-06-05 23:27:00,
2013-06-05 19:32:00,62.4,54.4,30.13,SE,135,0.0,0.0,75,0.00,,OVC,0.00,0.00,VWS V14.00,2013-06-05 23:32:00,
2013-06-05 19:37:00,62.4,54.4,30.13,ESE,112,0.0,0.0,75,0.00,,OVC,0.00,0.00,VWS V14.00,2013-06-05 23:37:00,
2013-06-05 19:42:00,62.2,54.2,30.13,SSE,158,0.0,0.0,75,0.00,,OVC,0.00,0.00,VWS V14.00,2013-06-05 23:42:00,
2013-06-05 19:47:00,62.2,54.2,30.14,SW,225,0.0,0.0,75,0.00,,OVC,0.00,0.00,VWS V14.00,2013-06-05 23:47:00,
2013-06-05 19:52:00,62.2,54.5,30.13,SW,225,0.0,0.0,76,0.00,,OVC,0.00,0.00,VWS V14.00,2013-06-05 23:52:00,
2013-06-05 19:57:00,62.0,54.4,30.13,SE,135,1.7,1.7,76,0.00,,OVC,0.00,0.00,VWS V14.00,2013-06-05 23:57:00,
2013-06-05 20:02:00,61.8,54.2,30.14,SE,135,0.0,0.0,76,0.00,,OVC,0.00,0.00,VWS V14.00,2013-06-06 00:02:00,
2013-06-05 20:07:00,61.7,54.4,30.13,ESE,112,0.0,0.0,77,0.00,,OVC,0.00,0.00,VWS V14.00,2013-06-06 00:07:00,
2013-06-05 20:12:00,61.5,54.2,30.13,ESE,112,0.0,0.0,77,0.00,,OVC,0.00,0.00,VWS V14.00,2013-06-06 00:12:00,
2013-06-05 20:17:00,61.3,54.0,30.13,ESE,112,0.0,0.0,77,0.00,,OVC,0.00,0.00,VWS V14.00,2013-06-06 00:17:00,
2013-06-05 20:22:00,61.1,54.2,30.13,ESE,112,1.3,1.3,78,0.00,,OVC,0.00,0.00,VWS V14.00,2013-06-06 00:22:00,
2013-06-05 20:27:00,60.9,54.3,30.13,ESE,112,0.0,0.0,79,0.00,,OVC,0.00,0.00,VWS V14.00,2013-06-06 00:27:00,
2013-06-05 20:32:00,60.6,54.1,30.14,ESE,112,0.0,0.0,79,0.00,,OVC,0.00,0.00,VWS V14.00,2013-06-06 00:32:00,
2013-06-05 20:37:00,60.6,54.1,30.13,ESE,112,0.0,0.0,79,0.00,,OVC,0.00,0.00,VWS V14.00,2013-06-06 00:37:00,
2013-06-05 20:42:00,60.6,54.4,30.13,ESE,112,0.0,0.0,80,0.00,,OVC,0.00,0.00,VWS V14.00,2013-06-06 00:42:00,
2013-06-05 20:47:00,60.4,54.2,30.14,ESE,112,0.0,0.0,80,0.00,,OVC,0.00,0.00,VWS V14.00,2013-06-06 00:47:00,
2013-06-05 20:52:00,60.2,54.0,30.14,ESE,112,0.0,0.0,80,0.00,,OVC,0.00,0.00,VWS V14.00,2013-06-06 00:52:00,
2013-06-05 20:57:00,60.0,53.8,30.13,ESE,112,0.0,0.0,80,0.00,,OVC,0.00,0.00,VWS V14.00,2013-06-06 00:57:00,
2013-06-05 21:02:00,59.9,54.1,30.13,ESE,112,0.0,0.0,81,0.00,,OVC,0.00,0.00,VWS V14.00,2013-06-06 01:02:00,
2013-06-05 21:07:00,59.7,53.9,30.13,ESE,112,0.0,0.0,81,0.00,,OVC,0.00,0.00,VWS V14.00,2013-06-06 01:07:00,
2013-06-05 21:12:00,59.5,53.7,30.13,ESE,112,0.0,0.0,81,0.00,,OVC,0.00,0.00,VWS V14.00,2013-06-06 01:12:00,
2013-06-05 21:17:00,59.5,54.0,30.14,ESE,112,0.0,0.0,82,0.00,,OVC,0.00,0.00,VWS V14.00,2013-06-06 01:17:00,
2013-06-05 21:22:00,59.3,53.8,30.14,ESE,112,0.0,0.0,82,0.00,,OVC,0.00,0.00,VWS V14.00,2013-06-06 01:22:00,
2013-06-05 21:27:00,59.3,53.8,30.14,ESE,112,0.0,0.0,82,0.00,,OVC,0.00,0.00,VWS V14.00,2013-06-06 01:27:00,
2013-06-05 21:32:00,59.1,53.6,30.14,ESE,112,0.0,0.0,82,0.00,,OVC,0.00,0.00,VWS V14.00,2013-06-06 01:32:00,
2013-06-05 21:37:00,59.1,54.0,30.14,ESE,112,0.0,0.0,83,0.00,,OVC,0.00,0.00,VWS V14.00,2013-06-06 01:37:00,
2013-06-05 21:42:00,58.8,53.7,30.14,ESE,112,0.0,0.0,83,0.00,,OVC,0.00,0.00,VWS V14.00,2013-06-06 01:42:00,
2013-06-05 21:47:00,58.8,53.7,30.13,ESE,112,0.0,0.0,83,0.00,,OVC,0.00,0.00,VWS V14.00,2013-06-06 01:47:00,
2013-06-05 21:52:00,59.0,53.8,30.14,ESE,112,0.0,0.0,83,0.00,,OVC,0.00,0.00,VWS V14.00,2013-06-06 01:52:00,
2013-06-05 21:57:00,59.0,53.8,30.14,ESE,112,0.0,0.0,83,0.00,,OVC,0.00,0.00,VWS V14.00,2013-06-06 01:57:00,
2013-06-05 22:02:00,58.8,53.7,30.14,ESE,112,0.0,0.0,83,0.00,,OVC,0.00,0.00,VWS V14.00,2013-06-06 02:02:00,
2013-06-05 22:07:00,58.8,54.0,30.14,ESE,112,0.0,0.0,84,0.00,,OVC,0.00,0.00,VWS V14.00,2013-06-06 02:07:00,
2013-06-05 22:12:00,58.8,54.0,30.15,SSW,202,0.0,0.0,84,0.00,,OVC,0.00,0.00,VWS V14.00,2013-06-06 02:12:00,
2013-06-05 22:17:00,58.8,54.0,30.15,SSE,158,1.1,1.1,84,0.00,,OVC,0.00,0.00,VWS V14.00,2013-06-06 02:17:00,
2013-06-05 22:22:00,58.8,54.0,30.14,SSE,158,0.8,0.8,84,0.00,,OVC,0.00,0.00,VWS V14.00,2013-06-06 02:22:00,
2013-06-05 22:27:00,58.8,54.3,30.15,SSE,158,0.0,0.0,85,0.00,,OVC,0.00,0.00,VWS V14.00,2013-06-06 02:27:00,
2013-06-05 22:32:00,58.8,54.3,30.14,SSE,158,0.0,0.0,85,0.00,,OVC,0.00,0.00,VWS V14.00,2013-06-06 02:32:00,
2013-06-05 22:37:00,58.8,54.3,30.15,SSE,158,0.0,0.0,85,0.00,,OVC,0.00,0.00,VWS V14.00,2013-06-06 02:37:00,
2013-06-05 22:42:00,58.8,54.3,30.15,SSE,158,0.0,0.0,85,0.00,,OVC,0.00,0.00,VWS V14.00,2013-06-06 02:42:00,
2013-06-05 22:47:00,58.8,54.3,30.14,SSE,158,0.0,0.0,85,0.00,,OVC,0.00,0.00,VWS V14.00,2013-06-06 02:47:00,
2013-06-05 22:52:00,58.8,54.3,30.14,SSE,158,0.0,0.0,85,0.00,,OVC,0.00,0.00,VWS V14.00,2013-06-06 02:52:00,
2013-06-05 22:57:00,58.8,54.6,30.14,SSE,158,0.0,0.0,86,0.00,,OVC,0.00,0.00,VWS V14.00,2013-06-06 02:57:00,
2013-06-05 23:02:00,58.8,54.6,30.14,SSE,158,0.0,0.0,86,0.00,,OVC,0.00,0.00,VWS V14.00,2013-06-06 03:02:00,
2013-06-05 23:07:00,58.8,54.6,30.14,SSE,158,0.0,0.0,86,0.00,,OVC,0.00,0.00,VWS V14.00,2013-06-06 03:07:00,
2013-06-05 23:12:00,58.8,54.6,30.14,SSE,158,0.0,0.0,86,0.00,,OVC,0.00,0.00,VWS V14.00,2013-06-06 03:12:00,
2013-06-05 23:17:00,58.8,54.6,30.14,SSE,158,0.0,0.0,86,0.00,,OVC,0.00,0.00,VWS V14.00,2013-06-06 03:17:00,
2013-06-05 23:22:00,58.8,55.0,30.14,SSE,158,0.0,0.0,87,0.00,,OVC,0.00,0.00,VWS V14.00,2013-06-06 03:22:00,
2013-06-05 23:27:00,58.8,55.0,30.15,SSE,158,0.0,0.0,87,0.00,,OVC,0.00,0.00,VWS V14.00,2013-06-06 03:27:00,
2013-06-05 23:32:00,58.6,54.4,30.14,SSE,158,0.0,0.0,86,0.00,,OVC,0.00,0.00,VWS V14.00,2013-06-06 03:32:00,
2013-06-05 23:37:00,58.6,54.4,30.15,SSE,158,0.0,0.0,86,0.00,,OVC,0.00,0.00,VWS V14.00,2013-06-06 03:37:00,
2013-06-05 23:42:00,58.6,54.4,30.15,SSE,158,0.0,0.0,86,0.00,,OVC,0.00,0.00,VWS V14.00,2013-06-06 03:42:00,
2013-06-05 23:47:00,58.8,55.0,30.15,SSE,158,0.0,0.0,87,0.00,,OVC,0.00,0.00,VWS V14.00,2013-06-06 03:47:00,
2013-06-05 23:52:00,58.8,55.0,30.15,SSE,158,0.0,0.0,87,0.00,,OVC,0.00,0.00,VWS V14.00,2013-06-06 03:52:00,
2013-06-05 23:57:00,58.8,55.0,30.15,SSE,158,0.0,0.0,87,0.00,,OVC,0.00,0.00,VWS V14.00,2013-06-06 03:57:00,